Time,TemperatureF,DewpointF,PressureIn,WindDirection,WindDirectionDegrees,WindSpeedMPH,WindSpeedGustMPH,Humidity,HourlyPrecipIn,Conditions,Clouds,dailyrainin,SoftwareType,DateUTC
2013-09-30 00:01:00,63.7,60.4,30.02,SE,141,0.0,0.0,89,0.00,,,0.00,Wunderground v.1.15,2013-09-30 04:01:00,
2013-09-30 00:03:00,62.6,60.8,30.02,WNW,288,0.0,0.0,94,0.00,,,0.00,Wunderground v.1.15,2013-09-30 04:03:00,
2013-09-30 00:04:00,62.5,60.7,30.02,WNW,288,0.0,0.0,94,0.00,,,0.00,Wunderground v.1.15,2013-09-30 04:04:00,
2013-09-30 00:07:00,62.3,60.8,30.02,WNW,288,0.0,0.0,95,0.00,,,0.00,Wunderground v.1.15,2013-09-30 04:07:00,
2013-09-30 00:08:00,62.2,60.8,30.02,WNW,288,0.0,0.0,95,0.00,,,0.00,Wunderground v.1.15,2013-09-30 04:08:00,
2013-09-30 00:13:00,62.0,60.6,30.02,WNW,288,0.0,0.0,95,0.00,,,0.00,Wunderground v.1.15,2013-09-30 04:13:00,
2013-09-30 00:18:00,61.8,60.4,30.02,WNW,288,0.0,0.0,95,0.00,,,0.00,Wunderground v.1.15,2013-09-30 04:18:00,
2013-09-30 00:23:00,61.7,60.5,30.02,WNW,288,0.0,0.0,96,0.00,,,0.00,Wunderground v.1.15,2013-09-30 04:23:00,
2013-09-30 00:29:00,61.5,60.1,30.02,WNW,293,0.0,1.0,95,0.00,,,0.00,Wunderground v.1.15,2013-09-30 04:29:00,
2013-09-30 00:34:00,61.2,60.1,30.02,WNW,297,0.0,1.0,96,0.00,,,0.00,Wunderground v.1.15,2013-09-30 04:34:00,
2013-09-30 00:39:00,60.9,59.8,30.02,WNW,297,0.0,1.0,96,0.00,,,0.00,Wunderground v.1.15,2013-09-30 04:39:00,
2013-09-30 00:44:00,60.7,59.6,30.02,WNW,297,0.0,0.0,96,0.00,,,0.00,Wunderground v.1.15,2013-09-30 04:44:00,
2013-09-30 00:49:00,60.4,59.3,30.02,WNW,296,0.0,0.0,96,0.00,,,0.00,Wunderground v.1.15,2013-09-30 04:49:00,
2013-09-30 00:55:00,60.0,59.1,30.02,WNW,297,0.0,0.0,97,0.00,,,0.00,Wunderground v.1.15,2013-09-30 04:55:00,
2013-09-30 01:00:00,60.1,59.2,30.01,WNW,297,0.0,0.0,97,0.00,,,0.00,Wunderground v.1.15,2013-09-30 05:00:00,
2013-09-30 01:05:00,60.0,59.1,30.01,WNW,297,0.0,0.0,97,0.00,,,0.00,Wunderground v.1.15,2013-09-30 05:05:00,
2013-09-30 01:10:00,59.9,59.0,30.01,WNW,297,0.0,0.0,97,0.00,,,0.00,Wunderground v.1.15,2013-09-30 05:10:00,
2013-09-30 01:15:00,59.7,58.8,30.01,WNW,297,0.0,0.0,97,0.00,,,0.00,Wunderground v.1.15,2013-09-30 05:15:00,
2013-09-30 01:21:00,59.3,58.4,30.01,WNW,297,0.0,0.0,97,0.00,,,0.00,Wunderground v.1.15,2013-09-30 05:21:00,
2013-09-30 01:26:00,59.0,58.2,30.01,WNW,297,0.0,0.0,97,0.00,,,0.00,Wunderground v.1.15,2013-09-30 05:26:00,
2013-09-30 01:31:00,58.7,57.9,30.02,WNW,297,0.0,0.0,97,0.00,,,0.00,Wunderground v.1.15,2013-09-30 05:31:00,
2013-09-30 01:36:00,58.5,57.7,30.02,WNW,297,0.0,0.0,97,0.00,,,0.00,Wunderground v.1.15,2013-09-30 05:36:00,
2013-09-30 01:41:00,58.4,57.6,30.01,WNW,297,0.0,0.0,97,0.00,,,0.00,Wunderground v.1.15,2013-09-30 05:41:00,
2013-09-30 01:47:00,58.7,58.1,30.02,WNW,297,1.0,1.0,98,0.00,,,0.00,Wunderground v.1.15,2013-09-30 05:47:00,
2013-09-30 01:52:00,58.5,57.9,30.02,NW,316,1.0,2.0,98,0.00,,,0.00,Wunderground v.1.15,2013-09-30 05:52:00,
2013-09-30 01:57:00,58.2,57.4,30.02,NW,316,0.0,2.0,97,0.00,,,0.00,Wunderground v.1.15,2013-09-30 05:57:00,
2013-09-30 02:02:00,58.1,57.5,30.02,NW,316,0.0,0.0,98,0.00,,,0.00,Wunderground v.1.15,2013-09-30 06:02:00,
2013-09-30 02:07:00,58.0,57.4,30.01,NW,316,0.0,0.0,98,0.00,,,0.00,Wunderground v.1.15,2013-09-30 06:07:00,
2013-09-30 02:12:00,57.9,57.3,30.02,NW,316,0.0,0.0,98,0.00,,,0.00,Wunderground v.1.15,2013-09-30 06:12:00,
2013-09-30 02:17:00,57.7,57.1,30.01,NW,316,0.0,0.0,98,0.00,,,0.00,Wunderground v.1.15,2013-09-30 06:17:00,
2013-09-30 02:22:00,57.7,57.1,30.01,NW,316,0.0,0.0,98,0.00,,,0.00,Wunderground v.1.15,2013-09-30 06:22:00,
2013-09-30 02:27:00,57.5,56.9,30.01,NW,316,0.0,0.0,98,0.00,,,0.00,Wunderground v.1.15,2013-09-30 06:27:00,
2013-09-30 02:32:00,57.7,57.4,30.01,NW,316,1.0,1.0,99,0.00,,,0.00,Wunderground v.1.15,2013-09-30 06:32:00,
2013-09-30 02:37:00,57.6,57.0,30.01,NW,316,0.0,1.0,98,0.00,,,0.00,Wunderground v.1.15,2013-09-30 06:37:00,
2013-09-30 02:42:00,57.5,56.9,30.01,NW,316,0.0,0.0,98,0.00,,,0.00,Wunderground v.1.15,2013-09-30 06:42:00,
2013-09-30 02:47:00,57.4,56.8,30.01,NW,316,0.0,0.0,98,0.00,,,0.00,Wunderground v.1.15,2013-09-30 06:47:00,
2013-09-30 02:53:00,57.3,56.7,30.01,NW,316,0.0,0.0,98,0.00,,,0.00,Wunderground v.1.15,2013-09-30 06:53:00,
2013-09-30 02:58:00,57.2,56.6,30.01,NW,316,0.0,0.0,98,0.00,,,0.00,Wunderground v.1.15,2013-09-30 06:58:00,
2013-09-30 03:03:00,57.3,57.0,30.01,NW,316,0.0,0.0,99,0.00,,,0.00,Wunderground v.1.15,2013-09-30 07:03:00,
2013-09-30 03:08:00,57.2,56.9,30.01,NW,316,0.0,0.0,99,0.00,,,0.00,Wunderground v.1.15,2013-09-30 07:08:00,
2013-09-30 03:13:00,57.0,56.4,30.01,NW,316,0.0,0.0,98,0.00,,,0.00,Wunderground v.1.15,2013-09-30 07:13:00,
2013-09-30 03:17:00,57.0,56.4,30.01,NW,316,0.0,0.0,98,0.00,,,0.00,Wunderground v.1.15,2013-09-30 07:17:00,
2013-09-30 03:22:00,56.9,56.6,30.01,NW,316,0.0,0.0,99,0.00,,,0.00,Wunderground v.1.15,2013-09-30 07:22:00,
2013-09-30 03:28:00,56.8,56.5,30.01,NW,316,0.0,0.0,99,0.00,,,0.00,Wunderground v.1.15,2013-09-30 07:28:00,
2013-09-30 03:33:00,56.6,56.3,30.01,NW,316,0.0,0.0,99,0.00,,,0.00,Wunderground v.1.15,2013-09-30 07:33:00,
2013-09-30 03:38:00,56.7,56.4,30.01,NW,316,0.0,0.0,99,0.00,,,0.00,Wunderground v.1.15,2013-09-30 07:38:00,
2013-09-30 03:43:00,57.1,56.8,30.01,NW,314,0.0,1.0,99,0.00,,,0.00,Wunderground v.1.15,2013-09-30 07:43:00,
2013-09-30 03:48:00,56.8,56.5,30.01,NW,315,0.0,1.0,99,0.00,,,0.00,Wunderground v.1.15,2013-09-30 07:48:00,
2013-09-30 03:53:00,56.7,56.4,30.01,NW,315,0.0,0.0,99,0.00,,,0.00,Wunderground v.1.15,2013-09-30 07:53:00,
2013-09-30 03:58:00,56.8,56.5,30.01,NW,314,0.0,0.0,99,0.00,,,0.00,Wunderground v.1.15,2013-09-30 07:58:00,
2013-09-30 04:03:00,56.9,56.6,30.01,NW,315,0.0,0.0,99,0.00,,,0.00,Wunderground v.1.15,2013-09-30 08:03:00,
2013-09-30 04:08:00,56.9,56.6,30.01,NW,314,0.0,0.0,99,0.00,,,0.00,Wunderground v.1.15,2013-09-30 08:08:00,
2013-09-30 04:13:00,57.0,56.7,30.01,NW,314,0.0,0.0,99,0.00,,,0.00,Wunderground v.1.15,2013-09-30 08:13:00,
2013-09-30 04:18:00,57.1,56.8,30.01,NW,314,0.0,0.0,99,0.00,,,0.00,Wunderground v.1.15,2013-09-30 08:18:00,
2013-09-30 04:23:00,57.1,56.8,30.01,NW,315,0.0,0.0,99,0.00,,,0.00,Wunderground v.1.15,2013-09-30 08:23:00,
2013-09-30 04:28:00,57.0,56.7,30.01,NW,314,0.0,0.0,99,0.00,,,0.00,Wunderground v.1.15,2013-09-30 08:28:00,
2013-09-30 04:33:00,57.0,56.7,30.01,NW,314,0.0,0.0,99,0.00,,,0.00,Wunderground v.1.15,2013-09-30 08:33:00,
2013-09-30 04:38:00,57.0,56.7,30.01,NW,315,0.0,0.0,99,0.00,,,0.00,Wunderground v.1.15,2013-09-30 08:38:00,
2013-09-30 04:43:00,57.0,56.7,30.01,NW,314,0.0,0.0,99,0.00,,,0.00,Wunderground v.1.15,2013-09-30 08:43:00,
2013-09-30 04:48:00,57.0,56.7,30.01,NW,314,0.0,0.0,99,0.00,,,0.00,Wunderground v.1.15,2013-09-30 08:48:00,
2013-09-30 04:53:00,57.1,56.8,30.01,NW,315,0.0,0.0,99,0.00,,,0.00,Wunderground v.1.15,2013-09-30 08:53:00,
2013-09-30 04:58:00,57.2,56.9,30.01,NW,315,0.0,0.0,99,0.00,,,0.00,Wunderground v.1.15,2013-09-30 08:58:00,
2013-09-30 05:03:00,57.3,57.0,30.01,NW,315,0.0,0.0,99,0.00,,,0.00,Wunderground v.1.15,2013-09-30 09:03:00,
2013-09-30 05:08:00,57.5,57.2,30.02,NNW,338,0.0,0.0,99,0.00,,,0.00,Wunderground v.1.15,2013-09-30 09:08:00,
2013-09-30 05:13:00,57.6,57.3,30.02,NNW,338,0.0,0.0,99,0.00,,,0.00,Wunderground v.1.15,2013-09-30 09:13:00,
2013-09-30 05:18:00,57.6,57.3,30.02,NNW,338,0.0,0.0,99,0.00,,,0.00,Wunderground v.1.15,2013-09-30 09:18:00,
2013-09-30 05:23:00,57.5,57.2,30.02,SW,231,0.0,0.0,99,0.00,,,0.00,Wunderground v.1.15,2013-09-30 09:23:00,
2013-09-30 05:28:00,57.4,57.1,30.02,WSW,255,0.0,2.0,99,0.00,,,0.00,Wunderground v.1.15,2013-09-30 09:28:00,
2013-09-30 05:33:00,57.3,57.0,30.02,WSW,255,0.0,1.0,99,0.00,,,0.00,Wunderground v.1.15,2013-09-30 09:33:00,
2013-09-30 05:38:00,57.2,56.9,30.02,West,266,0.0,1.0,99,0.00,,,0.00,Wunderground v.1.15,2013-09-30 09:38:00,
2013-09-30 05:43:00,57.2,56.9,30.02,West,266,0.0,1.0,99,0.00,,,0.00,Wunderground v.1.15,2013-09-30 09:43:00,
2013-09-30 05:48:00,57.2,56.9,30.02,West,266,0.0,1.0,99,0.00,,,0.00,Wunderground v.1.15,2013-09-30 09:48:00,
2013-09-30 05:53:00,57.3,57.0,30.02,West,266,0.0,1.0,99,0.00,,,0.00,Wunderground v.1.15,2013-09-30 09:53:00,
2013-09-30 05:58:00,57.2,56.9,30.02,West,264,0.0,1.0,99,0.00,,,0.00,Wunderground v.1.15,2013-09-30 09:58:00,
2013-09-30 06:03:00,57.2,56.9,30.02,West,264,0.0,0.0,99,0.00,,,0.00,Wunderground v.1.15,2013-09-30 10:03:00,
2013-09-30 06:08:00,57.2,56.9,30.02,West,264,0.0,0.0,99,0.00,,,0.00,Wunderground v.1.15,2013-09-30 10:08:00,
2013-09-30 06:13:00,57.2,56.9,30.02,West,264,0.0,0.0,99,0.00,,,0.00,Wunderground v.1.15,2013-09-30 10:13:00,
2013-09-30 06:18:00,57.3,57.0,30.03,West,264,0.0,0.0,99,0.00,,,0.00,Wunderground v.1.15,2013-09-30 10:18:00,
2013-09-30 06:23:00,57.2,56.9,30.03,West,264,0.0,0.0,99,0.00,,,0.00,Wunderground v.1.15,2013-09-30 10:23:00,
2013-09-30 06:28:00,57.2,56.9,30.03,West,264,0.0,0.0,99,0.00,,,0.00,Wunderground v.1.15,2013-09-30 10:28:00,
2013-09-30 06:33:00,57.2,56.9,30.03,West,264,0.0,1.0,99,0.00,,,0.00,Wunderground v.1.15,2013-09-30 10:33:00,
2013-09-30 06:38:00,57.1,56.8,30.03,West,264,0.0,1.0,99,0.00,,,0.00,Wunderground v.1.15,2013-09-30 10:38:00,
2013-09-30 06:43:00,57.1,56.8,30.03,West,264,0.0,0.0,99,0.00,,,0.00,Wunderground v.1.15,2013-09-30 10:43:00,
2013-09-30 06:48:00,57.1,57.1,30.03,West,264,0.0,0.0,100,0.00,,,0.00,Wunderground v.1.15,2013-09-30 10:48:00,
2013-09-30 06:53:00,57.1,57.1,30.03,West,264,0.0,0.0,100,0.00,,,0.00,Wunderground v.1.15,2013-09-30 10:53:00,
2013-09-30 06:58:00,57.1,57.1,30.03,West,264,0.0,1.0,100,0.00,,,0.00,Wunderground v.1.15,2013-09-30 10:58:00,
2013-09-30 07:03:00,57.0,57.0,30.04,West,264,0.0,1.0,100,0.00,,,0.00,Wunderground v.1.15,2013-09-30 11:03:00,
2013-09-30 07:08:00,57.0,57.0,30.03,WSW,257,0.0,2.0,100,0.00,,,0.00,Wunderground v.1.15,2013-09-30 11:08:00,
2013-09-30 07:13:00,57.0,57.0,30.04,WSW,257,0.0,0.0,100,0.00,,,0.00,Wunderground v.1.15,2013-09-30 11:13:00,
2013-09-30 07:18:00,57.0,57.0,30.04,WSW,257,0.0,0.0,100,0.00,,,0.00,Wunderground v.1.15,2013-09-30 11:18:00,
2013-09-30 07:23:00,56.9,56.9,30.04,WSW,257,0.0,0.0,100,0.00,,,0.00,Wunderground v.1.15,2013-09-30 11:23:00,
2013-09-30 07:28:00,56.8,56.8,30.04,WSW,257,0.0,0.0,100,0.00,,,0.00,Wunderground v.1.15,2013-09-30 11:28:00,
2013-09-30 07:33:00,56.8,56.8,30.04,WSW,257,0.0,0.0,100,0.00,,,0.00,Wunderground v.1.15,2013-09-30 11:33:00,
2013-09-30 07:38:00,56.8,56.8,30.04,WSW,257,0.0,1.0,100,0.00,,,0.00,Wunderground v.1.15,2013-09-30 11:38:00,
2013-09-30 07:43:00,56.8,56.8,30.05,WSW,257,0.0,0.0,100,0.00,,,0.00,Wunderground v.1.15,2013-09-30 11:43:00,
2013-09-30 07:48:00,56.9,56.9,30.05,NNW,342,1.0,1.0,100,0.00,,,0.00,Wunderground v.1.15,2013-09-30 11:48:00,
2013-09-30 07:53:00,57.1,57.1,30.05,NNW,342,0.0,0.0,100,0.00,,,0.00,Wunderground v.1.15,2013-09-30 11:53:00,
2013-09-30 07:58:00,57.3,57.3,30.05,NNW,343,0.0,1.0,100,0.00,,,0.00,Wunderground v.1.15,2013-09-30 11:58:00,
2013-09-30 08:03:00,57.5,57.5,30.05,NNW,342,0.0,0.0,100,0.00,,,0.00,Wunderground v.1.15,2013-09-30 12:03:00,
2013-09-30 08:08:00,57.5,57.5,30.06,West,271,1.0,1.0,100,0.00,,,0.00,Wunderground v.1.15,2013-09-30 12:08:00,
2013-09-30 08:13:00,57.4,57.4,30.06,West,263,1.0,1.0,100,0.00,,,0.00,Wunderground v.1.15,2013-09-30 12:13:00,
2013-09-30 08:18:00,57.4,57.4,30.06,West,273,0.0,1.0,100,0.00,,,0.00,Wunderground v.1.15,2013-09-30 12:18:00,
2013-09-30 08:23:00,57.4,57.4,30.06,West,273,0.0,1.0,100,0.00,,,0.00,Wunderground v.1.15,2013-09-30 12:23:00,
2013-09-30 08:28:00,57.5,57.5,30.06,West,273,0.0,1.0,100,0.00,,,0.00,Wunderground v.1.15,2013-09-30 12:28:00,
2013-09-30 08:33:00,57.6,57.6,30.06,NNW,345,0.0,0.0,100,0.00,,,0.00,Wunderground v.1.15,2013-09-30 12:33:00,
2013-09-30 08:38:00,57.9,57.9,30.06,North,353,0.0,1.0,100,0.00,,,0.00,Wunderground v.1.15,2013-09-30 12:38:00,
2013-09-30 08:43:00,58.1,58.1,30.06,NW,323,0.0,0.0,100,0.00,,,0.01,Wunderground v.1.15,2013-09-30 12:43:00,
2013-09-30 08:48:00,58.3,58.3,30.06,NW,323,0.0,0.0,100,0.00,,,0.01,Wunderground v.1.15,2013-09-30 12:48:00,
2013-09-30 08:53:00,58.6,58.6,30.06,NW,323,0.0,0.0,100,0.00,,,0.01,Wunderground v.1.15,2013-09-30 12:53:00,
2013-09-30 08:58:00,58.7,58.7,30.06,NW,323,0.0,0.0,100,0.00,,,0.01,Wunderground v.1.15,2013-09-30 12:58:00,
2013-09-30 09:03:00,58.8,58.8,30.06,West,274,1.0,1.0,100,0.00,,,0.01,Wunderground v.1.15,2013-09-30 13:03:00,
2013-09-30 09:08:00,58.8,58.8,30.06,West,266,0.0,1.0,100,0.00,,,0.01,Wunderground v.1.15,2013-09-30 13:08:00,
2013-09-30 09:13:00,58.8,58.8,30.06,WSW,255,1.0,1.0,100,0.00,,,0.01,Wunderground v.1.15,2013-09-30 13:13:00,
2013-09-30 09:18:00,58.9,58.9,30.06,WSW,255,0.0,1.0,100,0.00,,,0.01,Wunderground v.1.15,2013-09-30 13:18:00,
2013-09-30 09:23:00,59.0,59.0,30.06,West,273,0.0,1.0,100,0.00,,,0.01,Wunderground v.1.15,2013-09-30 13:23:00,
2013-09-30 09:28:00,59.2,59.2,30.06,West,273,0.0,1.0,100,0.00,,,0.01,Wunderground v.1.15,2013-09-30 13:28:00,
2013-09-30 09:33:00,59.3,59.3,30.06,WSW,250,1.0,1.0,100,0.00,,,0.01,Wunderground v.1.15,2013-09-30 13:33:00,
2013-09-30 09:38:00,59.3,59.3,30.07,WSW,257,2.0,2.0,100,0.00,,,0.01,Wunderground v.1.15,2013-09-30 13:38:00,
2013-09-30 09:43:00,59.3,59.3,30.06,West,261,1.0,2.0,100,0.00,,,0.01,Wunderground v.1.15,2013-09-30 13:43:00,
2013-09-30 09:48:00,59.5,59.5,30.06,WSW,257,1.0,3.0,100,0.00,,,0.01,Wunderground v.1.15,2013-09-30 13:48:00,
2013-09-30 09:53:00,59.7,59.7,30.06,WSW,252,2.0,2.0,100,0.00,,,0.01,Wunderground v.1.15,2013-09-30 13:53:00,
2013-09-30 09:58:00,60.1,60.1,30.07,West,259,0.0,2.0,100,0.00,,,0.01,Wunderground v.1.15,2013-09-30 13:58:00,
2013-09-30 10:03:00,60.3,60.3,30.07,WSW,256,1.0,3.0,100,0.00,,,0.01,Wunderground v.1.15,2013-09-30 14:03:00,
2013-09-30 10:08:00,60.2,60.2,30.07,West,260,1.0,3.0,100,0.00,,,0.01,Wunderground v.1.15,2013-09-30 14:08:00,
2013-09-30 10:13:00,60.5,60.5,30.07,SW,231,0.0,1.0,100,0.00,,,0.01,Wunderground v.1.15,2013-09-30 14:13:00,
2013-09-30 10:18:00,60.7,60.7,30.07,WSW,258,0.0,1.0,100,0.00,,,0.01,Wunderground v.1.15,2013-09-30 14:18:00,
2013-09-30 10:23:00,61.2,61.2,30.07,WNW,283,0.0,1.0,100,0.00,,,0.01,Wunderground v.1.15,2013-09-30 14:23:00,
2013-09-30 10:28:00,61.6,61.6,30.07,SW,236,1.0,1.0,100,0.00,,,0.01,Wunderground v.1.15,2013-09-30 14:28:00,
2013-09-30 10:33:00,62.0,62.0,30.07,WSW,250,1.0,2.0,100,0.00,,,0.01,Wunderground v.1.15,2013-09-30 14:33:00,
2013-09-30 10:38:00,62.0,62.0,30.06,West,280,2.0,2.0,100,0.00,,,0.01,Wunderground v.1.15,2013-09-30 14:38:00,
2013-09-30 10:43:00,62.3,62.3,30.06,South,187,1.0,2.0,100,0.00,,,0.01,Wunderground v.1.15,2013-09-30 14:43:00,
2013-09-30 10:48:00,62.7,62.7,30.06,WSW,239,2.0,3.0,100,0.00,,,0.01,Wunderground v.1.15,2013-09-30 14:48:00,
2013-09-30 10:53:00,62.4,62.1,30.06,WSW,258,0.0,3.0,99,0.00,,,0.01,Wunderground v.1.15,2013-09-30 14:53:00,
2013-09-30 10:58:00,62.7,62.7,30.06,WSW,250,0.0,3.0,100,0.00,,,0.01,Wunderground v.1.15,2013-09-30 14:58:00,
2013-09-30 11:03:00,62.7,62.4,30.06,WSW,249,3.0,3.0,99,0.00,,,0.01,Wunderground v.1.15,2013-09-30 15:03:00,
2013-09-30 11:08:00,62.8,62.5,30.06,SSW,203,0.0,4.0,99,0.00,,,0.01,Wunderground v.1.15,2013-09-30 15:08:00,
2013-09-30 11:13:00,62.8,62.5,30.06,West,260,3.0,3.0,99,0.00,,,0.01,Wunderground v.1.15,2013-09-30 15:13:00,
2013-09-30 11:18:00,63.3,63.0,30.05,West,267,1.0,5.0,99,0.00,,,0.01,Wunderground v.1.15,2013-09-30 15:18:00,
2013-09-30 11:23:00,63.6,63.3,30.05,SW,236,2.0,5.0,99,0.00,,,0.01,Wunderground v.1.15,2013-09-30 15:23:00,
2013-09-30 11:28:00,63.8,63.5,30.05,SW,224,4.0,5.0,99,0.00,,,0.01,Wunderground v.1.15,2013-09-30 15:28:00,
2013-09-30 11:33:00,63.8,63.2,30.05,SSW,205,1.0,5.0,98,0.00,,,0.01,Wunderground v.1.15,2013-09-30 15:33:00,
2013-09-30 11:38:00,64.5,63.9,30.06,West,269,4.0,5.0,98,0.00,,,0.01,Wunderground v.1.15,2013-09-30 15:38:00,
2013-09-30 11:43:00,64.9,64.3,30.06,WSW,257,3.0,5.0,98,0.00,,,0.01,Wunderground v.1.15,2013-09-30 15:43:00,
2013-09-30 11:48:00,65.8,65.2,30.06,West,264,6.0,8.0,98,0.00,,,0.01,Wunderground v.1.15,2013-09-30 15:48:00,
2013-09-30 11:53:00,67.3,63.0,30.05,WSW,257,3.0,9.0,86,0.00,,,0.01,Wunderground v.1.15,2013-09-30 15:53:00,
2013-09-30 11:58:00,68.5,62.4,30.05,WSW,255,3.0,9.0,81,0.00,,,0.01,Wunderground v.1.15,2013-09-30 15:58:00,
2013-09-30 12:03:00,69.3,61.8,30.05,West,260,8.0,8.0,77,0.00,,,0.01,Wunderground v.1.15,2013-09-30 16:03:00,
2013-09-30 12:08:00,70.1,61.8,30.05,WSW,253,3.0,8.0,75,0.00,,,0.01,Wunderground v.1.15,2013-09-30 16:08:00,
2013-09-30 12:13:00,70.7,61.2,30.04,West,264,4.0,8.0,72,0.00,,,0.01,Wunderground v.1.15,2013-09-30 16:13:00,
2013-09-30 12:18:00,70.9,61.4,30.04,WSW,253,3.0,11.0,72,0.00,,,0.01,Wunderground v.1.15,2013-09-30 16:18:00,
2013-09-30 12:23:00,71.3,61.0,30.04,SW,236,7.0,7.0,70,0.00,,,0.01,Wunderground v.1.15,2013-09-30 16:23:00,
2013-09-30 12:28:00,71.6,60.9,30.04,WNW,282,6.0,9.0,69,0.00,,,0.01,Wunderground v.1.15,2013-09-30 16:28:00,
2013-09-30 12:33:00,71.9,60.8,30.04,West,274,7.0,8.0,68,0.00,,,0.01,Wunderground v.1.15,2013-09-30 16:33:00,
2013-09-30 12:38:00,71.8,60.7,30.04,WNW,287,4.0,9.0,68,0.00,,,0.01,Wunderground v.1.15,2013-09-30 16:38:00,
2013-09-30 12:43:00,72.1,61.0,30.04,West,259,6.0,8.0,68,0.00,,,0.01,Wunderground v.1.15,2013-09-30 16:43:00,
2013-09-30 12:48:00,72.0,60.9,30.04,WNW,284,4.0,12.0,68,0.00,,,0.01,Wunderground v.1.15,2013-09-30 16:48:00,
2013-09-30 12:53:00,71.9,60.8,30.04,West,278,6.0,9.0,68,0.00,,,0.01,Wunderground v.1.15,2013-09-30 16:53:00,
2013-09-30 12:58:00,72.4,60.4,30.04,WSW,245,9.0,12.0,66,0.00,,,0.01,Wunderground v.1.15,2013-09-30 16:58:00,
2013-09-30 13:03:00,72.5,59.2,30.04,West,259,6.0,10.0,63,0.00,,,0.01,Wunderground v.1.15,2013-09-30 17:03:00,
2013-09-30 13:08:00,72.8,59.5,30.04,SW,225,6.0,12.0,63,0.00,,,0.01,Wunderground v.1.15,2013-09-30 17:08:00,
2013-09-30 13:13:00,73.1,59.8,30.04,West,259,8.0,9.0,63,0.00,,,0.01,Wunderground v.1.15,2013-09-30 17:13:00,
2013-09-30 13:18:00,73.7,60.3,30.03,WSW,258,6.0,10.0,63,0.00,,,0.01,Wunderground v.1.15,2013-09-30 17:18:00,
2013-09-30 13:23:00,73.7,59.9,30.03,West,266,6.0,9.0,62,0.00,,,0.01,Wunderground v.1.15,2013-09-30 17:23:00,
2013-09-30 13:28:00,73.4,58.7,30.03,West,260,4.0,11.0,60,0.00,,,0.01,Wunderground v.1.15,2013-09-30 17:28:00,
2013-09-30 13:33:00,73.5,58.8,30.03,WSW,258,3.0,13.0,60,0.00,,,0.01,Wunderground v.1.15,2013-09-30 17:33:00,
2013-09-30 13:38:00,73.8,59.0,30.03,WSW,256,4.0,13.0,60,0.00,,,0.01,Wunderground v.1.15,2013-09-30 17:38:00,
2013-09-30 13:43:00,74.2,59.4,30.02,WSW,243,6.0,12.0,60,0.00,,,0.01,Wunderground v.1.15,2013-09-30 17:43:00,
2013-09-30 13:48:00,74.0,59.2,30.02,WSW,245,9.0,14.0,60,0.00,,,0.01,Wunderground v.1.15,2013-09-30 17:48:00,
2013-09-30 13:53:00,74.0,60.6,30.02,SW,233,7.0,11.0,63,0.00,,,0.01,Wunderground v.1.15,2013-09-30 17:53:00,
2013-09-30 13:58:00,74.2,58.9,30.01,SW,226,7.0,13.0,59,0.00,,,0.01,Wunderground v.1.15,2013-09-30 17:58:00,
2013-09-30 14:03:00,74.3,59.5,30.01,WSW,257,9.0,11.0,60,0.00,,,0.01,Wunderground v.1.15,2013-09-30 18:03:00,
2013-09-30 14:08:00,74.1,58.9,30.01,WSW,257,4.0,13.0,59,0.00,,,0.01,Wunderground v.1.15,2013-09-30 18:08:00,
2013-09-30 14:13:00,74.1,59.3,30.00,West,273,7.0,9.0,60,0.00,,,0.01,Wunderground v.1.15,2013-09-30 18:13:00,
2013-09-30 14:18:00,74.3,60.4,30.00,West,272,5.0,12.0,62,0.00,,,0.01,Wunderground v.1.15,2013-09-30 18:18:00,
2013-09-30 14:23:00,75.1,60.3,30.00,WNW,286,6.0,13.0,60,0.00,,,0.01,Wunderground v.1.15,2013-09-30 18:23:00,
2013-09-30 14:28:00,74.5,59.2,30.00,West,280,5.0,13.0,59,0.00,,,0.01,Wunderground v.1.15,2013-09-30 18:28:00,
2013-09-30 14:33:00,74.4,59.1,30.00,WSW,242,10.0,11.0,59,0.00,,,0.01,Wunderground v.1.15,2013-09-30 18:33:00,
2013-09-30 14:38:00,74.8,60.0,30.00,NNW,329,5.0,12.0,60,0.00,,,0.01,Wunderground v.1.15,2013-09-30 18:38:00,
2013-09-30 14:43:00,75.3,59.5,29.99,West,274,10.0,10.0,58,0.00,,,0.01,Wunderground v.1.15,2013-09-30 18:43:00,
2013-09-30 14:48:00,74.9,58.6,29.99,West,267,4.0,12.0,57,0.00,,,0.01,Wunderground v.1.15,2013-09-30 18:48:00,
2013-09-30 14:53:00,75.2,59.9,29.99,West,260,6.0,8.0,59,0.00,,,0.01,Wunderground v.1.15,2013-09-30 18:53:00,
2013-09-30 14:58:00,75.3,59.0,29.99,West,268,6.0,11.0,57,0.00,,,0.01,Wunderground v.1.15,2013-09-30 18:58:00,
2013-09-30 15:03:00,75.0,59.2,29.98,WSW,255,5.0,9.0,58,0.00,,,0.01,Wunderground v.1.15,2013-09-30 19:03:00,
2013-09-30 15:08:00,75.1,59.3,29.98,WSW,253,10.0,11.0,58,0.00,,,0.01,Wunderground v.1.15,2013-09-30 19:08:00,
2013-09-30 15:13:00,75.4,60.5,29.98,SW,236,4.0,10.0,60,0.00,,,0.01,Wunderground v.1.15,2013-09-30 19:13:00,
2013-09-30 15:18:00,76.0,60.2,29.98,WSW,257,8.0,10.0,58,0.00,,,0.01,Wunderground v.1.15,2013-09-30 19:18:00,
2013-09-30 15:23:00,76.1,59.8,29.98,West,264,7.0,9.0,57,0.00,,,0.01,Wunderground v.1.15,2013-09-30 19:23:00,
2013-09-30 15:28:00,75.5,59.2,29.97,West,276,5.0,12.0,57,0.00,,,0.01,Wunderground v.1.15,2013-09-30 19:28:00,
2013-09-30 15:33:00,75.3,59.5,29.97,SW,225,0.0,7.0,58,0.00,,,0.01,Wunderground v.1.15,2013-09-30 19:33:00,
2013-09-30 15:38:00,75.8,60.4,29.97,SSW,211,4.0,8.0,59,0.00,,,0.01,Wunderground v.1.15,2013-09-30 19:38:00,
2013-09-30 15:43:00,75.8,59.0,29.97,West,266,6.0,10.0,56,0.00,,,0.01,Wunderground v.1.15,2013-09-30 19:43:00,
2013-09-30 15:48:00,75.5,59.7,29.97,WNW,293,5.0,10.0,58,0.00,,,0.01,Wunderground v.1.15,2013-09-30 19:48:00,
2013-09-30 15:53:00,75.4,59.1,29.97,NW,310,4.0,8.0,57,0.00,,,0.01,Wunderground v.1.15,2013-09-30 19:53:00,
2013-09-30 15:58:00,75.5,59.7,29.97,WSW,255,6.0,8.0,58,0.00,,,0.01,Wunderground v.1.15,2013-09-30 19:58:00,
2013-09-30 16:03:00,75.8,59.5,29.97,West,277,2.0,5.0,57,0.00,,,0.01,Wunderground v.1.15,2013-09-30 20:03:00,
2013-09-30 16:08:00,76.3,58.4,29.97,West,270,6.0,11.0,54,0.00,,,0.01,Wunderground v.1.15,2013-09-30 20:08:00,
2013-09-30 16:14:00,76.0,58.7,29.97,West,264,5.0,9.0,55,0.00,,,0.01,Wunderground v.1.15,2013-09-30 20:14:00,
2013-09-30 16:19:00,76.0,58.7,29.96,WSW,255,8.0,11.0,55,0.00,,,0.01,Wunderground v.1.15,2013-09-30 20:19:00,
2013-09-30 16:24:00,76.0,60.2,29.96,WNW,283,3.0,7.0,58,0.00,,,0.01,Wunderground v.1.15,2013-09-30 20:24:00,
2013-09-30 16:28:00,76.0,59.2,29.96,West,271,9.0,11.0,56,0.00,,,0.01,Wunderground v.1.15,2013-09-30 20:28:00,
2013-09-30 16:34:00,76.3,59.4,29.96,West,262,4.0,8.0,56,0.00,,,0.01,Wunderground v.1.15,2013-09-30 20:34:00,
2013-09-30 16:39:00,76.7,59.3,29.96,WSW,255,2.0,8.0,55,0.00,,,0.01,Wunderground v.1.15,2013-09-30 20:39:00,
2013-09-30 16:44:00,76.6,60.2,29.97,SW,224,7.0,10.0,57,0.00,,,0.01,Wunderground v.1.15,2013-09-30 20:44:00,
2013-09-30 16:49:00,76.4,58.5,29.97,West,267,7.0,11.0,54,0.00,,,0.01,Wunderground v.1.15,2013-09-30 20:49:00,
2013-09-30 16:54:00,75.8,58.5,29.97,WSW,245,3.0,8.0,55,0.00,,,0.01,Wunderground v.1.15,2013-09-30 20:54:00,
2013-09-30 16:59:00,75.5,58.7,29.97,West,277,2.0,8.0,56,0.00,,,0.01,Wunderground v.1.15,2013-09-30 20:59:00,
2013-09-30 17:04:00,75.5,59.7,29.97,SW,235,4.0,4.0,58,0.00,,,0.01,Wunderground v.1.15,2013-09-30 21:04:00,
2013-09-30 17:09:00,75.7,59.4,29.97,SW,235,6.0,6.0,57,0.00,,,0.01,Wunderground v.1.15,2013-09-30 21:09:00,
2013-09-30 17:14:00,75.7,58.9,29.97,West,266,6.0,8.0,56,0.00,,,0.01,Wunderground v.1.15,2013-09-30 21:14:00,
2013-09-30 17:19:00,76.1,58.2,29.97,SW,218,4.0,9.0,54,0.00,,,0.01,Wunderground v.1.15,2013-09-30 21:19:00,
2013-09-30 17:24:00,76.5,58.1,29.97,WSW,255,4.0,6.0,53,0.00,,,0.01,Wunderground v.1.15,2013-09-30 21:24:00,
2013-09-30 17:29:00,76.6,58.7,29.97,West,276,4.0,7.0,54,0.00,,,0.01,Wunderground v.1.15,2013-09-30 21:29:00,
2013-09-30 17:34:00,76.8,58.4,29.96,West,266,6.0,8.0,53,0.00,,,0.01,Wunderground v.1.15,2013-09-30 21:34:00,
2013-09-30 17:39:00,76.5,58.1,29.97,WNW,283,2.0,8.0,53,0.00,,,0.01,Wunderground v.1.15,2013-09-30 21:39:00,
2013-09-30 17:44:00,76.6,58.7,29.97,West,263,5.0,6.0,54,0.00,,,0.01,Wunderground v.1.15,2013-09-30 21:44:00,
2013-09-30 17:49:00,76.6,59.2,29.96,West,277,2.0,6.0,55,0.00,,,0.01,Wunderground v.1.15,2013-09-30 21:49:00,
2013-09-30 17:54:00,76.5,58.6,29.97,WSW,248,4.0,7.0,54,0.00,,,0.01,Wunderground v.1.15,2013-09-30 21:54:00,
2013-09-30 17:59:00,76.2,58.3,29.97,WSW,248,3.0,7.0,54,0.00,,,0.01,Wunderground v.1.15,2013-09-30 21:59:00,
2013-09-30 18:04:00,76.2,59.4,29.97,WSW,240,2.0,5.0,56,0.00,,,0.01,Wunderground v.1.15,2013-09-30 22:04:00,
2013-09-30 18:09:00,76.3,58.9,29.96,WSW,255,4.0,6.0,55,0.00,,,0.01,Wunderground v.1.15,2013-09-30 22:09:00,
2013-09-30 18:14:00,76.2,59.9,29.97,WSW,238,5.0,7.0,57,0.00,,,0.01,Wunderground v.1.15,2013-09-30 22:14:00,
2013-09-30 18:19:00,76.1,59.8,29.97,West,266,5.0,7.0,57,0.00,,,0.01,Wunderground v.1.15,2013-09-30 22:19:00,
2013-09-30 18:24:00,75.7,58.4,29.97,WSW,256,5.0,9.0,55,0.00,,,0.01,Wunderground v.1.15,2013-09-30 22:24:00,
2013-09-30 18:29:00,75.4,58.1,29.97,West,271,4.0,9.0,55,0.00,,,0.01,Wunderground v.1.15,2013-09-30 22:29:00,
2013-09-30 18:34:00,75.3,58.5,29.97,West,281,4.0,7.0,56,0.00,,,0.01,Wunderground v.1.15,2013-09-30 22:34:00,
2013-09-30 18:39:00,75.1,58.3,29.97,WSW,246,5.0,7.0,56,0.00,,,0.01,Wunderground v.1.15,2013-09-30 22:39:00,
2013-09-30 18:44:00,75.0,59.2,29.97,SW,233,3.0,5.0,58,0.00,,,0.01,Wunderground v.1.15,2013-09-30 22:44:00,
2013-09-30 18:49:00,75.0,58.7,29.97,WSW,238,2.0,5.0,57,0.00,,,0.01,Wunderground v.1.15,2013-09-30 22:49:00,
2013-09-30 18:54:00,74.9,58.6,29.97,WSW,255,4.0,5.0,57,0.00,,,0.01,Wunderground v.1.15,2013-09-30 22:54:00,
2013-09-30 18:59:00,74.4,59.1,29.97,West,260,4.0,6.0,59,0.00,,,0.01,Wunderground v.1.15,2013-09-30 22:59:00,
2013-09-30 19:04:00,74.0,59.2,29.98,West,270,3.0,4.0,60,0.00,,,0.01,Wunderground v.1.15,2013-09-30 23:04:00,
2013-09-30 19:09:00,73.5,61.0,29.98,WNW,285,2.0,4.0,65,0.00,,,0.01,Wunderground v.1.15,2013-09-30 23:09:00,
2013-09-30 19:14:00,72.3,60.3,29.98,WNW,294,1.0,2.0,66,0.00,,,0.01,Wunderground v.1.15,2013-09-30 23:14:00,
2013-09-30 19:19:00,71.3,60.6,29.98,WNW,301,0.0,2.0,69,0.00,,,0.01,Wunderground v.1.15,2013-09-30 23:19:00,
2013-09-30 19:24:00,70.4,60.5,29.98,West,274,0.0,2.0,71,0.00,,,0.01,Wunderground v.1.15,2013-09-30 23:24:00,
2013-09-30 19:29:00,69.7,60.7,29.98,WNW,284,0.0,2.0,73,0.00,,,0.01,Wunderground v.1.15,2013-09-30 23:29:00,
2013-09-30 19:34:00,69.1,60.1,29.98,WNW,284,0.0,1.0,73,0.00,,,0.01,Wunderground v.1.15,2013-09-30 23:34:00,
2013-09-30 19:39:00,68.5,60.6,29.98,WNW,284,0.0,1.0,76,0.00,,,0.01,Wunderground v.1.15,2013-09-30 23:39:00,
2013-09-30 19:44:00,68.0,60.5,29.99,WNW,284,0.0,0.0,77,0.00,,,0.01,Wunderground v.1.15,2013-09-30 23:44:00,
2013-09-30 19:49:00,67.4,60.3,29.99,WNW,284,0.0,0.0,78,0.00,,,0.01,Wunderground v.1.15,2013-09-30 23:49:00,
2013-09-30 19:54:00,66.8,60.1,29.99,WNW,283,0.0,0.0,79,0.00,,,0.01,Wunderground v.1.15,2013-09-30 23:54:00,
2013-09-30 19:59:00,66.3,60.3,29.99,WNW,283,0.0,0.0,81,0.00,,,0.01,Wunderground v.1.15,2013-09-30 23:59:00,
2013-09-30 20:04:00,65.8,59.8,29.99,WNW,284,0.0,0.0,81,0.00,,,0.01,Wunderground v.1.15,2013-10-01 00:04:00,
2013-09-30 20:09:00,65.5,60.2,29.99,WNW,284,0.0,0.0,83,0.00,,,0.01,Wunderground v.1.15,2013-10-01 00:09:00,
2013-09-30 20:14:00,65.1,60.5,30.00,WNW,284,0.0,1.0,85,0.00,,,0.01,Wunderground v.1.15,2013-10-01 00:14:00,
2013-09-30 20:19:00,64.6,60.3,30.00,West,263,0.0,1.0,86,0.00,,,0.01,Wunderground v.1.15,2013-10-01 00:19:00,
2013-09-30 20:24:00,64.2,59.9,30.00,West,263,0.0,0.0,86,0.00,,,0.01,Wunderground v.1.15,2013-10-01 00:24:00,
2013-09-30 20:29:00,63.8,59.9,30.00,West,263,0.0,0.0,87,0.00,,,0.01,Wunderground v.1.15,2013-10-01 00:29:00,
2013-09-30 20:34:00,63.5,59.9,30.00,West,263,0.0,0.0,88,0.00,,,0.01,Wunderground v.1.15,2013-10-01 00:34:00,
2013-09-30 20:39:00,63.2,59.9,30.01,West,262,0.0,0.0,89,0.00,,,0.01,Wunderground v.1.15,2013-10-01 00:39:00,
2013-09-30 20:44:00,63.2,60.2,30.01,West,262,0.0,0.0,90,0.00,,,0.01,Wunderground v.1.15,2013-10-01 00:44:00,
2013-09-30 20:49:00,62.9,59.9,30.01,West,262,0.0,0.0,90,0.00,,,0.01,Wunderground v.1.15,2013-10-01 00:49:00,
2013-09-30 20:54:00,62.8,60.1,30.01,West,262,0.0,1.0,91,0.00,,,0.01,Wunderground v.1.15,2013-10-01 00:54:00,
2013-09-30 20:59:00,62.4,59.7,30.01,West,260,0.0,1.0,91,0.00,,,0.01,Wunderground v.1.15,2013-10-01 00:59:00,
2013-09-30 21:04:00,62.1,59.4,30.01,SW,231,0.0,1.0,91,0.00,,,0.01,Wunderground v.1.15,2013-10-01 01:04:00,
2013-09-30 21:09:00,61.8,59.5,30.01,SW,231,0.0,1.0,92,0.00,,,0.01,Wunderground v.1.15,2013-10-01 01:09:00,
2013-09-30 21:14:00,61.6,59.3,30.01,SW,231,0.0,0.0,92,0.00,,,0.01,Wunderground v.1.15,2013-10-01 01:14:00,
2013-09-30 21:19:00,61.4,59.1,30.02,SW,231,0.0,0.0,92,0.00,,,0.01,Wunderground v.1.15,2013-10-01 01:19:00,
2013-09-30 21:24:00,61.1,58.8,30.02,SW,231,0.0,0.0,92,0.00,,,0.01,Wunderground v.1.15,2013-10-01 01:24:00,
2013-09-30 21:29:00,61.1,59.4,30.02,SW,231,0.0,1.0,94,0.00,,,0.01,Wunderground v.1.15,2013-10-01 01:29:00,
2013-09-30 21:34:00,61.1,59.4,30.02,SW,231,0.0,0.0,94,0.00,,,0.01,Wunderground v.1.15,2013-10-01 01:34:00,
2013-09-30 21:39:00,60.9,58.9,30.02,SW,231,0.0,0.0,93,0.00,,,0.01,Wunderground v.1.15,2013-10-01 01:39:00,
2013-09-30 21:44:00,60.5,58.5,30.02,SW,231,0.0,0.0,93,0.00,,,0.01,Wunderground v.1.15,2013-10-01 01:44:00,
2013-09-30 21:49:00,60.3,58.6,30.02,SW,231,0.0,1.0,94,0.00,,,0.01,Wunderground v.1.15,2013-10-01 01:49:00,
2013-09-30 21:54:00,60.1,58.4,30.03,SW,231,0.0,0.0,94,0.00,,,0.01,Wunderground v.1.15,2013-10-01 01:54:00,
2013-09-30 21:59:00,60.1,58.7,30.03,SW,231,0.0,0.0,95,0.00,,,0.01,Wunderground v.1.15,2013-10-01 01:59:00,
2013-09-30 22:04:00,59.9,58.5,30.03,SW,231,0.0,0.0,95,0.00,,,0.01,Wunderground v.1.15,2013-10-01 02:04:00,
2013-09-30 22:09:00,59.6,58.2,30.03,SW,231,0.0,0.0,95,0.00,,,0.01,Wunderground v.1.15,2013-10-01 02:09:00,
2013-09-30 22:14:00,59.7,58.6,30.03,SW,231,0.0,0.0,96,0.00,,,0.01,Wunderground v.1.15,2013-10-01 02:14:00,
2013-09-30 22:19:00,59.7,58.6,30.03,SW,231,0.0,0.0,96,0.00,,,0.01,Wunderground v.1.15,2013-10-01 02:19:00,
2013-09-30 22:24:00,59.6,58.5,30.04,SW,231,0.0,0.0,96,0.00,,,0.01,Wunderground v.1.15,2013-10-01 02:24:00,
2013-09-30 22:29:00,59.5,58.4,30.03,SW,231,0.0,0.0,96,0.00,,,0.01,Wunderground v.1.15,2013-10-01 02:29:00,
2013-09-30 22:34:00,59.6,58.5,30.04,SW,231,0.0,0.0,96,0.00,,,0.01,Wunderground v.1.15,2013-10-01 02:34:00,
2013-09-30 22:39:00,59.5,58.4,30.04,SW,231,0.0,0.0,96,0.00,,,0.01,Wunderground v.1.15,2013-10-01 02:39:00,
2013-09-30 22:44:00,59.4,58.3,30.04,SW,231,0.0,0.0,96,0.00,,,0.01,Wunderground v.1.15,2013-10-01 02:44:00,
2013-09-30 22:49:00,59.3,58.2,30.04,SW,231,0.0,0.0,96,0.00,,,0.01,Wunderground v.1.15,2013-10-01 02:49:00,
2013-09-30 22:54:00,59.2,58.3,30.04,SW,231,0.0,0.0,97,0.00,,,0.01,Wunderground v.1.15,2013-10-01 02:54:00,
2013-09-30 22:59:00,59.1,58.2,30.04,SW,231,0.0,0.0,97,0.00,,,0.01,Wunderground v.1.15,2013-10-01 02:59:00,
2013-09-30 23:04:00,58.9,58.1,30.04,SW,231,0.0,0.0,97,0.00,,,0.01,Wunderground v.1.15,2013-10-01 03:04:00,
2013-09-30 23:09:00,58.6,57.5,30.04,SW,231,0.0,0.0,96,0.00,,,0.01,Wunderground v.1.15,2013-10-01 03:09:00,
2013-09-30 23:14:00,58.3,57.5,30.04,SW,231,0.0,0.0,97,0.00,,,0.01,Wunderground v.1.15,2013-10-01 03:14:00,
2013-09-30 23:19:00,58.5,57.7,30.04,SW,231,0.0,0.0,97,0.00,,,0.01,Wunderground v.1.15,2013-10-01 03:19:00,
2013-09-30 23:24:00,58.5,57.7,30.04,SW,231,0.0,0.0,97,0.00,,,0.01,Wunderground v.1.15,2013-10-01 03:24:00,
2013-09-30 23:29:00,58.4,57.6,30.04,SW,231,0.0,0.0,97,0.00,,,0.01,Wunderground v.1.15,2013-10-01 03:29:00,
2013-09-30 23:34:00,58.4,57.6,30.04,SW,231,0.0,0.0,97,0.00,,,0.01,Wunderground v.1.15,2013-10-01 03:34:00,
2013-09-30 23:39:00,58.2,57.4,30.04,SW,231,0.0,0.0,97,0.00,,,0.01,Wunderground v.1.15,2013-10-01 03:39:00,
2013-09-30 23:44:00,58.2,57.6,30.04,SW,231,0.0,0.0,98,0.00,,,0.01,Wunderground v.1.15,2013-10-01 03:44:00,
2013-09-30 23:49:00,58.0,57.4,30.04,SW,231,0.0,0.0,98,0.00,,,0.01,Wunderground v.1.15,2013-10-01 03:49:00,
2013-09-30 23:54:00,57.9,57.3,30.04,SW,231,0.0,0.0,98,0.00,,,0.01,Wunderground v.1.15,2013-10-01 03:54:00,
2013-09-30 23:59:00,57.8,57.2,30.04,SW,231,0.0,0.0,98,0.00,,,0.01,Wunderground v.1.15,2013-10-01 03:59:00,